Location: B?ogocice
(50.2413°N, 20.2361°E)
Time: 00:29:28
(UTC+00:00)

Meteor 1-27 - Pass Details

Date: 15 June 2024
Orbit: 837 x 891 km, 81.3° (Epoch: 18 July)

Event Time Altitude Azimuth Distance (km) Brightness Sun altitude
Rises 01:05:35 0° 345° (NNW) 3,515 8.1 -9.7°
Reaches altitude 10° 01:08:05 10° 341° (NNW) 2,569 7.3 -9.4°
Maximum altitude 01:13:48 58° 264° (W) 1,026 4.5 -8.9°
Drops below altitude 10° 01:19:27 10° 187° (S) 2,528 6.2 -8.4°
Enters shadow 01:20:38 - 185° (S) 2,975 6.5 -8.3°
